Weather History for Grenoble, France

Change the Weather History Date:

Saturday, September 14, 2013

  Actual Average Record
Temperature  
Mean Temperature 60 °F -  
Max Temperature 73 °F 65 °F 86 °F (2000)
Min Temperature 48 °F 49 °F 41 °F (1996)
Degree Days  
Heating Degree Days 4    
Growing Degree Days 10 (Base 50)    
Moisture  
Dew Point 52 °F    
Average Humidity 76    
Maximum Humidity 94    
Minimum Humidity 50    
Precipitation  
Precipitation 0.00 in - - ()
Sea Level Pressure  
Sea Level Pressure 30.09 in    
Wind  
Wind Speed 5 mph ()    
Max Wind Speed 10 mph    
Max Gust Speed -    
Visibility 6.2 miles    
Events Rain    
Averages and records for this station are not official NWS values.
T = Trace of Precipitation, MM = Missing Value Source: Averaged Metar Reports

Daily Weather History Graph

Daily Weather History Graph

Search for Another Location

Airport:

Trip Planner

Search our weather history database for the weather conditions in past years. The results will help you decide how hot, cold, wet, or windy it might be!

Date:

Astronomy

Sep. 14, 2013 Rise Set
Actual Time 7:15 AM CEST 7:51 PM CEST
Civil Twilight 6:46 AM CEST 8:21 PM CEST
Nautical Twilight 6:10 AM CEST 8:56 PM CEST
Astronomical Twilight 5:34 AM CEST 9:32 PM CEST
Moon 4:31 PM CEST (9/14) 1:18 AM CEST (9/14)
Length of Visible Light 13h 35m
Length of Day
12h 35m
Waxing Gibbous, 69% of the Moon is Illuminated
Sep 14
Waxing Gibbous
Sep 19
Full
Sep 27
Last Quarter
Oct 5
New
Oct 12
First Quarter

Hourly Weather History & Observations

Time (CEST) Temp. Dew Point Humidity Pressure Visibility Wind Dir Wind Speed Gust Speed Precip Events Conditions
12:00 AM 51.8 °F 48.2 °F 88% 30.21 in 6.2 mi SE 4.6 mph - N/A   Unknown
12:30 AM 51.8 °F 48.2 °F 88% 30.21 in 6.2 mi Variable 2.3 mph - N/A   Partly Cloudy
1:00 AM 51.8 °F 46.4 °F 82% 30.21 in 6.2 mi ESE 3.5 mph - N/A   Unknown
1:30 AM 51.8 °F 48.2 °F 88% 30.21 in 6.2 mi East 3.5 mph - N/A   Unknown
2:00 AM 50.0 °F 46.4 °F 87% 30.18 in 6.2 mi East 3.5 mph - N/A   Unknown
2:30 AM 50.0 °F 48.2 °F 94% 30.18 in 6.2 mi ESE 4.6 mph - N/A   Unknown
3:00 AM 48.2 °F 46.4 °F 93% 30.18 in 6.2 mi ESE 4.6 mph - N/A   Unknown
3:30 AM 50.0 °F 48.2 °F 94% 30.18 in 6.2 mi East 5.8 mph - N/A   Mostly Cloudy
4:00 AM 50.0 °F 48.2 °F 94% 30.15 in 6.2 mi East 5.8 mph - N/A   Partly Cloudy
4:30 AM 50.0 °F 46.4 °F 87% 30.15 in 6.2 mi East 6.9 mph - N/A   Unknown
5:00 AM 48.2 °F 46.4 °F 93% 30.15 in 6.2 mi ESE 6.9 mph - N/A   Mostly Cloudy
5:30 AM 50.0 °F 48.2 °F 94% 30.15 in 6.2 mi East 8.1 mph - N/A   Mostly Cloudy
6:00 AM 50.0 °F 46.4 °F 87% 30.15 in 6.2 mi East 8.1 mph - N/A   Partly Cloudy
6:30 AM 48.2 °F 46.4 °F 93% 30.15 in 6.2 mi East 8.1 mph - N/A   Unknown
7:00 AM 50.0 °F 48.2 °F 94% 30.12 in 6.2 mi NE 4.6 mph - N/A   Unknown
7:30 AM 51.8 °F 48.2 °F 88% 30.15 in 6.2 mi East 6.9 mph - N/A   Unknown
8:00 AM 51.8 °F 48.2 °F 88% 30.15 in 6.2 mi ESE 6.9 mph - N/A   Unknown
8:30 AM 53.6 °F 50.0 °F 88% 30.12 in 6.2 mi ESE 8.1 mph - N/A   Unknown
9:00 AM 53.6 °F 50.0 °F 88% 30.12 in 6.2 mi ESE 8.1 mph - N/A   Unknown
9:30 AM 57.2 °F 50.0 °F 77% 30.12 in 6.2 mi East 8.1 mph - N/A   Unknown
10:00 AM 59.0 °F 50.0 °F 72% 30.12 in 6.2 mi East 8.1 mph - N/A   Unknown
10:30 AM 60.8 °F 50.0 °F 68% 30.12 in 6.2 mi East 10.4 mph - N/A   Unknown
11:00 AM 62.6 °F 50.0 °F 63% 30.09 in 6.2 mi East 10.4 mph - N/A   Unknown
11:30 AM 64.4 °F 51.8 °F 64% 30.09 in 6.2 mi East 8.1 mph - N/A   Unknown
12:00 PM 66.2 °F 51.8 °F 60% 30.09 in 6.2 mi East 8.1 mph - N/A   Unknown
12:30 PM 68.0 °F 51.8 °F 56% 30.09 in 6.2 mi East 8.1 mph - N/A   Unknown
1:00 PM 69.8 °F 51.8 °F 53% 30.06 in 6.2 mi East 4.6 mph - N/A   Unknown
1:30 PM 69.8 °F 51.8 °F 53% 30.06 in 6.2 mi Variable 2.3 mph - N/A   Unknown
2:00 PM 71.6 °F 53.6 °F 53% 30.06 in 6.2 mi Variable 3.5 mph - N/A   Unknown
2:30 PM 71.6 °F 53.6 °F 53% 30.06 in 6.2 mi Variable 3.5 mph - N/A   Unknown
3:00 PM 73.4 °F 53.6 °F 50% 30.04 in 6.2 mi Variable 3.5 mph - N/A   Unknown
3:30 PM 71.6 °F 53.6 °F 53% 30.04 in 6.2 mi West 3.5 mph - N/A   Unknown
4:00 PM 71.6 °F 53.6 °F 53% 30.04 in 6.2 mi Variable 2.3 mph - N/A   Unknown
4:30 PM 73.4 °F 53.6 °F 50% 30.01 in 6.2 mi Calm Calm - N/A   Unknown
5:00 PM 71.6 °F 53.6 °F 53% 30.01 in 6.2 mi Variable 1.2 mph - N/A   Mostly Cloudy
5:30 PM 71.6 °F 53.6 °F 53% 30.01 in 6.2 mi Variable 3.5 mph - N/A   Unknown
6:00 PM 71.6 °F 53.6 °F 53% 29.98 in 6.2 mi Variable 3.5 mph - N/A   Unknown
6:30 PM 69.8 °F 53.6 °F 56% 29.98 in 6.2 mi SE 3.5 mph - N/A   Mostly Cloudy
7:00 PM 68.0 °F 57.2 °F 68% 29.98 in 6.2 mi SE 4.6 mph - N/A   Overcast
7:30 PM 68.0 °F 59.0 °F 73% 29.98 in 6.2 mi SSE 3.5 mph - N/A   Unknown
8:00 PM 66.2 °F 59.0 °F 78% 29.98 in 6.2 mi Calm Calm - N/A   Overcast
8:30 PM 64.4 °F 59.0 °F 83% 29.98 in 6.2 mi East 3.5 mph - N/A   Overcast
9:00 PM 64.4 °F 59.0 °F 83% 29.98 in 6.2 mi East 2.3 mph - N/A Rain Light Rain
9:30 PM 62.6 °F 59.0 °F 88% 29.98 in 6.2 mi ENE 5.8 mph - N/A Rain Light Rain
10:00 PM 62.6 °F 59.0 °F 88% 30.01 in 4.3 mi Variable 2.3 mph - N/A Rain Rain
10:30 PM 62.6 °F 59.0 °F 88% 30.01 in 6.2 mi East 3.5 mph - N/A Rain Light Rain
11:00 PM 60.8 °F 59.0 °F 94% 30.01 in - Variable 3.5 mph - N/A Rain Rain
11:30 PM 60.8 °F 59.0 °F 94% 29.98 in 6.2 mi ESE 10.4 mph - N/A Rain Light Rain